Other Public Products
Issued by NWS Charleston, SC

Home | Current Version | Previous Version | Text Only | Print | Product List | Glossary On
Versions: 1 2 3 4 5 6 7 8 9 10 11 12 13 14 15 16 17 18 19 20 21 22 23 24 25 26 27 28 29 30 31 32 33 34 35 36 37 38 39 40 41 42 43 44 45 46 47 48 49 50
000
FPUS82 KCHS 170127
OPUCHS

TEST...KCHS/KSAV Gateway Observations...TEST
National Weather Service Charleston SC
800 PM EST MON JAN 16 2017

NOTE: "fair" indicates few or no clouds below 12,000 feet with no
significant weather and/or obstructions to visibility.

SCZ050-WAZ558-NCZ071-TXZ119-213-PAZ071-DCZ001-FLZ074-172-MI076-
NYZ176-178-MAZ016-IL014-TNZ027-NJZ106-GAZ044-MD014-170200-
...Gateway Observations for Charleston International...

CITY           SKY/WX    TMP DP  RH WIND       PRES   REMARKS
Chas Airport   CLOUDY    58  55  90 E5        30.32R
Seattle        MOCLDY    43  33  68 SE6       30.00F
Charlotte      CLOUDY    51  46  83 S8        30.34S
Dallas DFW     MOCLDY    57  46  66 N7        30.02R
Dallas Love    MOCLDY    59  47  64 NE5       30.03R
Philladelphia  CLOUDY    39  26  59 S5        30.37S WCI  36
Wash National  CLOUDY    43  34  70 S5        30.36S
Baltimore      CLOUDY    39  29  67 SE3       30.34F
Miami          PTCLDY    75  61  61 E12       30.21S
Detroit        LGT RAIN  33  31  92 E5        30.20F FOG     WCI  29
Newark         CLOUDY    41  24  51 SW7       30.34S
Laguardia      MOCLDY    42  25  50 SW9       30.33F
J F K          CLOUDY    40  27  59 SW9       30.36S WCI  34
Boston Logan   CLOUDY    37  18  46 SW14G22   30.26S WCI  28
Ft. Lauderdale PTCLDY    74  63  68 SE15      30.21S
Chicago O`Hare LGT RAIN  36  35  96 E8        29.99F VSB 1/2 WCI  30
Chicago Midway RAIN      36  34  92 E9        29.99F VSB 1   WCI  29
Houston Bush   CLOUDY    73  66  78 S14       29.99R
Houston Hobby  CLOUDY    71  67  87 SE10      29.99S
Nashville      CLOUDY    66  51  58 S12       30.10F
Atlanta        MOCLDY    66  55  67 SE7       30.24R

$$

GAZ044-118-TXZ119-213-NCZ071-DCZ001-MDZ014-506-PAZ021-071-NJZ106-
NYZ176-178-MAZ106-OHZ011-021-055-MIZ076-KYZ091-ILZ014-INZ047-
MNZ060-170200-
...Gateway Observations for Savannah International...

CITY           SKY/WX    TMP DP  RH WIND       PRES   REMARKS
Savannah Arpt  FOG       61  58  90 E8        30.30R VSB 1/2
Atlanta        MOCLDY    66  55  67 SE7       30.24R
Charlotte      CLOUDY    51  46  83 S8        30.34S
Dallas DFW     MOCLDY    57  46  66 N7        30.02R
Houston Bush   CLOUDY    73  66  78 S14       29.99R
Wash National  CLOUDY    43  34  70 S5        30.36S
Wash Dulles    CLOUDY    42  31  64 SE3       30.34S
Baltimore      CLOUDY    39  29  67 SE3       30.34F
Philadelphia   CLOUDY    39  26  59 S5        30.37S WCI  36
Newark         CLOUDY    41  24  51 SW7       30.34S
Laguardia      MOCLDY    42  25  50 SW9       30.33F
J F K          CLOUDY    40  27  59 SW9       30.36S WCI  34
Boston         CLOUDY    37  18  46 SW14G22   30.26S WCI  28
Pittsburg      CLOUDY    37  34  89 E3        30.21F
Akron          CLOUDY    37  33  85 SE6       30.21S FOG     WCI  32
Cleveland      CLOUDY    39  33  79 SE10      30.21F WCI  32
Cincinnati     LGT RAIN  50  49  96 E5        30.12F FOG
Columbus         N/A     43  43 100 CALM      30.16F
Detroit        LGT RAIN  33  31  92 E5        30.20F FOG     WCI  29
Chicago O`Hare LGT RAIN  36  35  96 E8        29.99F VSB 1/2 WCI  30
Minneapolis    FRZ RAIN  31  25  78 NE7       30.02F WCI  24
Indianapolis   FOG       48  47  96 SE12      30.04F VSB 1

$$




USA.gov is the U.S. government's official web portal to all federal, state and local government web resources and services.